Regional Weather Roundup
Issued by NWS

Home | Current Version | Previous Version | Text Only | Print | Product List | Glossary Off
Versions: 1 2 3 4 5 6 7 8 9 10 11 12 13 14 15 16 17 18 19 20 21 22 23 24 25 26 27 28 29 30 31 32 33 34 35 36 37 38 39 40 41 42 43 44 45 46 47 48 49 50

415
ASUS44 KMEG 211000
RWRTN
TENNESSEE HOURLY STATE WEATHER ROUNDUP
NATIONAL WEATHER SERVICE MEMPHIS TN
500 AM CDT THU SEP 21 2017

TNZ002-004-019-021-049-052-054-088>092-211100-
WEST TENNESSEE

CITY           SKY/WX    TMP DP  RH WIND       PRES   REMARKS
MEMPHIS INTL   CLEAR     75  70  84 S6        30.02R
NWS MEMPHIS      N/A     72 N/A N/A MISG        N/A
JACKSON        CLEAR     69  68  96 CALM      30.04R
DYERSBURG      CLEAR     71  70  96 CALM      30.04R
$$

TNZ008-025-027-028-033-062-065-066-211100-
NORTH MIDDLE TENNESSEE

CITY           SKY/WX    TMP DP  RH WIND       PRES   REMARKS
NASHVILLE      CLEAR     69  67  93 CALM      30.07R
CLARKSVILLE    CLEAR     69  67  93 CALM      30.05R FOG
SMYRNA           N/A    N/A N/A N/A MISG        N/A
CROSSVILLE     CLEAR     61  60  97 CALM      30.13R FOG
$$

TNZ061-075-076-078-094-096-097-211100-
SOUTH MIDDLE TENNESSEE

CITY           SKY/WX    TMP DP  RH WIND       PRES   REMARKS
TULLAHOMA        N/A     66  64  94 CALM      30.09R VSB 1/2
WINCHESTER     CLEAR     64  64 100 CALM        N/A
MCMINNVILLE    MOCLDY    64  64 100 CALM      30.09R
$$

TNZ017-018-042-046-047-211100-
NORTHEAST TENNESSEE

CITY           SKY/WX    TMP DP  RH WIND       PRES   REMARKS
TRI CITIES     PTCLDY    58  58 100 CALM      30.13R FOG
$$

TNZ012-013-036-069-073-074-211100-
CENTRAL EAST TENNESSEE

CITY           SKY/WX    TMP DP  RH WIND       PRES   REMARKS
KNOXVILLE      CLEAR     66  64  93 NE3       30.08R
OAK RIDGE      FOG       64  63  96 CALM      30.10R VSB 3/4
GATLINBURG     CLEAR     63  61  94 CALM      30.09R
$$

TNZ083-085-099-211100-
SOUTHEAST TENNESSEE

CITY           SKY/WX    TMP DP  RH WIND       PRES   REMARKS
CHATTANOOGA    PTCLDY    69  67  93 NW3       30.07R
$$

SKY/WX REPORTED AS FAIR MEANS FEW OR NO CLOUDS BELOW
12 THOUSAND FEET.





USA.gov is the U.S. government's official web portal to all federal, state and local government web resources and services.